Location: *
(45.9500°N, 9.0833°E)
Time: 11:03:45
(UTC+00:00)

Transit 2A - Visible Passes

Search period start: 13 June 2021 00:00
Search period end: 23 June 2021 00:00
Orbit: 601 x 958 km, 66.7° (Epoch: 13 June)

Date Brightness Start Highest point End Pass type
(mag) Time Alt. Az. Time Alt. Az. Time Alt. Az.
13 Jun 7.4 01:16:31 10° NNW 01:20:58 37° NE 01:25:50 10° ESE visible
14 Jun 7.9 00:42:31 10° NNW 00:46:39 28° NE 00:51:05 10° ESE visible
14 Jun 6.1 02:25:15 10° NW 02:30:01 52° WSW 02:35:16 10° SSE visible
15 Jun 8.3 00:08:36 10° N 00:12:16 21° NE 00:16:09 10° E visible
15 Jun 5.9 01:50:59 10° NW 01:55:52 76° WSW 02:01:17 10° SSE visible
15 Jun 8.6 23:34:46 10° N 23:37:49 16° NE 23:41:01 10° ENE visible
16 Jun 6.1 01:16:47 10° NNW 01:21:41 77° NE 01:27:05 10° SE visible
16 Jun 8.7 23:01:06 10° N 23:03:19 13° NNE 23:05:35 10° ENE visible
17 Jun 6.6 00:42:40 10° NNW 00:47:27 55° NE 00:52:43 10° SE visible
17 Jun 7.1 02:26:23 10° WNW 02:30:22 24° WSW 02:34:39 10° SSW visible
17 Jun 8.9 22:28:08 10° NNE 22:28:45 10° NNE 22:29:21 10° NE visible
18 Jun 7.2 00:08:37 10° NNW 00:13:11 40° NE 00:18:11 10° ESE visible
18 Jun 6.6 01:51:48 10° NW 01:56:18 34° WSW 02:00:52 11° S visible
18 Jun 7.6 23:34:36 10° NNW 23:38:52 30° NE 23:43:28 10° ESE visible
19 Jun 6.2 01:17:24 10° NW 01:22:12 49° WSW 01:25:58 18° S visible
19 Jun 8.0 23:00:39 10° N 23:04:29 23° NE 23:08:35 10° E visible
20 Jun 5.9 00:43:07 10° NW 00:48:03 71° WSW 00:51:26 23° SSE visible
20 Jun 8.0 02:30:05 10° W 02:30:30 10° WSW 02:30:55 10° WSW visible
20 Jun 8.3 22:26:47 10° N 22:30:03 18° NE 22:33:29 10° E visible
21 Jun 5.9 00:08:55 10° NNW 00:13:52 83° ENE 00:17:09 24° SE visible
21 Jun 7.6 01:53:33 10° WNW 01:56:32 16° WSW 01:57:34 15° WSW visible
21 Jun 8.5 21:53:04 10° N 21:55:33 14° NNE 21:58:09 10° ENE visible
21 Jun 6.4 23:34:47 10° NNW 23:39:39 59° NE 23:43:03 22° SE visible
22 Jun 7.2 01:18:36 10° WNW 01:22:32 23° WSW 01:23:29 21° SW visible
22 Jun 8.6 21:19:42 10° NNE 21:21:00 11° NNE 21:22:20 10° NE visible
22 Jun 6.9 23:00:42 10° NNW 23:05:23 43° NE 23:09:04 18° ESE visible
